Regional Weather Roundup
Issued by NWS Cleveland, OH

Home | Current Version | Previous Version | Graphics & Text | Print | Product List | Glossary On
Versions: 1 2 3 4 5 6 7 8 9 10 11 12 13 14 15 16 17 18 19 20 21 22 23 24 25 26 27 28 29 30 31 32 33 34 35 36 37 38 39 40 41 42 43 44 45 46 47 48 49 50
000
ASUS41 KCLE 120012
RWRCLE
OHIO REGIONAL WEATHER ROUNDUP
NATIONAL WEATHER SERVICE WILMINGTON, OH
700 PM EST THU FEB 11 2016

NOTE: "FAIR" INDICATES FEW OR NO CLOUDS BELOW 12,000 FEET WITH NO
SIGNIFICANT WEATHER AND/OR OBSTRUCTIONS TO VISIBILITY.

OHZ001>008-015>018-024>027-034-035-043-044-120100-
   NORTHWEST OHIO

CITY           SKY/WX    TMP DP  RH WIND       PRES   REMARKS
DEFIANCE       MOCLDY    19   8  62 CALM      30.28R
FINDLAY        CLOUDY    18   8  65 W6        30.27R WCI  10
TOLEDO EXPRESS FAIR      17   5  59 SW6       30.26R WCI   9
TOLEDO EXEC    FAIR      19   4  51 W6        30.28R WCI  11
LIMA           MOCLDY    18   9  68 SW7       30.26R WCI   9
$$

OHZ009>014-019>023-028>033-038-089-120100-
   NORTHEAST OHIO

CITY           SKY/WX    TMP DP  RH WIND       PRES   REMARKS
CLE-HOPKINS    MOCLDY    15   9  76 S5        30.29R WCI   8
CLE-LAKEFRONT  FLURRIES  20   6  55 W15       30.26R WCI   6
CUY CO. ARPT   MOCLDY    19   5  53 NW12G21   30.25R WCI   7
LORAIN-ELYRIA  CLOUDY    15   3  59 SW7       30.26R WCI   5
ASHTABULA      FAIR      15   0  51 NW8       30.24R WCI   4
AKRON-CANTON   FAIR      14   1  56 W6        30.24R WCI   5
WOOSTER        FAIR       6   0  76 W5        30.26R WCI  -3
MANSFIELD      CLOUDY    15   2  56 SW6       30.24R WCI   6
YOUNGSTOWN     FAIR      12   3  67 W6        30.22R WCI   3
$$

OHZ042-051>053-060>062-070>072-077>081-120100-
  SOUTHWEST OHIO

CITY           SKY/WX    TMP DP  RH WIND       PRES   REMARKS
CINC-COVINGTON FAIR      22   6  50 CALM      30.29R
CINC-LUNKEN    FAIR      21   4  47 N5        30.34R WCI  15
HAMILTON       FAIR      18   9  68 CALM      30.33R
DAYTON         MOCLDY    18   8  65 N3        30.29R
WRIGHT-PAT AFB CLOUDY    20   5  50 W3        30.29R
DAYTON GENERAL CLOUDY    21   5  50 W3        30.28R
WILMINGTON     MOCLDY    19   5  54 NW5       30.28R WCI  12
$$

OHZ036-037-039>041-045>050-054>059-063>069-073>076-082>088-120100-
  CENTRAL AND SOUTHEAST OHIO

CITY           SKY/WX    TMP DP  RH WIND       PRES   REMARKS
COLUMBUS       FLURRIES  19   6  57 CALM      30.29R
OSU AIRPORT    CLOUDY    19   8  62 CALM      30.28R
BOLTON FIELD   FAIR      16   8  70 MISG      30.30R
RICKENBACK AFB MOCLDY    17   6  64 NW3       30.30R
NEWARK         MOCLDY    14   7  73 SW3       30.28R
MARION         CLOUDY    18   5  57 NW5       30.27R WCI  11
LANCASTER      CLOUDY    18   8  65 CALM      30.30R
ZANESVILLE     FAIR      19   7  59 W3        30.28R
NEW PHILLY     FAIR      16   1  51 W5        30.28R WCI   9
$$



USA.gov is the U.S. government's official web portal to all federal, state and local government web resources and services.